| time (UTC) | temp C | wind direction | speed KPH | gust KPH | rain 1hr cm | rain 24hr cm | rain mn cm | humidity % | barometer mb |
| 20260506182415 | 22 | 194 | 0.0 | 9.7 | 0.00 | 0.00 | 0.00 | 64 | 1021.4 |
| 20260506181410 | 21 | 202 | 1.6 | 4.8 | 0.00 | 0.00 | 0.00 | 65 | 1021.4 |
| 20260506180408 | 21 | 208 | 1.6 | 3.2 | 0.00 | 0.00 | 0.00 | 68 | 1021.2 |
| 20260506175408 | 20 | 89 | 0.0 | 4.8 | 0.00 | 0.00 | 0.00 | 68 | 1021.4 |
| 20260506174402 | 20 | 6 | 0.0 | 3.2 | 0.00 | 0.00 | 0.00 | 73 | 1021.3 |
| 20260506173402 | 20 | 187 | 1.6 | 4.8 | 0.00 | 0.00 | 0.00 | 70 | 1021.3 |
| 20260506172401 | 19 | 164 | 3.2 | 6.4 | 0.00 | 0.00 | 0.00 | 71 | 1021.2 |
| 20260506171356 | 18 | 183 | 4.8 | 4.8 | 0.00 | 0.00 | 0.00 | 73 | 1021.3 |
| 20260506170355 | 18 | 178 | 4.8 | 8.0 | 0.00 | 0.00 | 0.00 | 73 | 1021.4 |
| 20260506165352 | 18 | 269 | 0.0 | 3.2 | 0.00 | 0.00 | 0.00 | 75 | 1021.1 |
| 20260506164351 | 17 | 89 | 0.0 | 3.2 | 0.00 | 0.00 | 0.00 | 76 | 1021.4 |
| 20260506163349 | 17 | 167 | 1.6 | 4.8 | 0.00 | 0.00 | 0.00 | 77 | 1021.1 |
| 20260506162349 | 17 | 169 | 3.2 | 6.4 | 0.00 | 0.00 | 0.00 | 77 | 1021.1 |
| 20260506161343 | 16 | 209 | 0.0 | 9.7 | 0.00 | 0.00 | 0.00 | 79 | 1021.3 |
| 20260506160343 | 16 | 201 | 1.6 | 6.4 | 0.00 | 0.00 | 0.00 | 79 | 1021.3 |
| 20260506155338 | 16 | 164 | 1.6 | 4.8 | 0.00 | 0.00 | 0.00 | 80 | 1021.3 |
| 20260506153456 | 16 | 166 | 1.6 | 4.8 | 0.00 | 0.00 | 0.00 | 81 | 1021.2 |
| 20260506152456 | 15 | 124 | 0.0 | 8.0 | 0.00 | 0.00 | 0.00 | 82 | 1021.1 |
| 20260506151451 | 15 | 257 | 0.0 | 4.8 | 0.00 | 0.00 | 0.00 | 83 | 1021.2 |
| 20260506150450 | 15 | 276 | 0.0 | 4.8 | 0.00 | 0.00 | 0.00 | 83 | 1021.1 |
| 20260506145449 | 15 | 139 | 0.0 | 4.8 | 0.00 | 0.00 | 0.00 | 84 | 1021.0 |
| 20260506144449 | 15 | 240 | 0.0 | 3.2 | 0.00 | 0.00 | 0.00 | 85 | 1020.9 |
| 20260506143444 | 14 | 172 | 4.8 | 6.4 | 0.00 | 0.00 | 0.00 | 85 | 1021.2 |
| 20260506142440 | 14 | 187 | 6.4 | 9.7 | 0.00 | 0.00 | 0.00 | 85 | 1020.9 |
| 20260506141436 | 14 | 131 | 3.2 | 6.4 | 0.00 | 0.00 | 0.00 | 86 | 1021.0 |
| 20260506140431 | 13 | 220 | 0.0 | 4.8 | 0.00 | 0.00 | 0.00 | 87 | 1020.9 |
| 20260506135431 | 13 | 189 | 0.0 | 3.2 | 0.00 | 0.00 | 0.00 | 88 | 1020.6 |
| 20260506134429 | 13 | 175 | 1.6 | 4.8 | 0.00 | 0.00 | 0.00 | 88 | 1020.4 |
| 20260506133429 | 13 | 133 | 1.6 | 4.8 | 0.00 | 0.00 | 0.00 | 88 | 1020.4 |
| 20260506132428 | 13 | 73 | 0.0 | 3.2 | 0.00 | 0.00 | 0.00 | 88 | 1020.6 |
| 20260506131428 | 13 | 141 | 1.6 | 3.2 | 0.00 | 0.00 | 0.00 | 88 | 1020.3 |
| 20260506130427 | 13 | 50 | 0.0 | 4.8 | 0.00 | 0.00 | 0.00 | 88 | 1020.4 |
| 20260506125423 | 13 | 144 | 0.0 | 4.8 | 0.00 | 0.00 | 0.00 | 88 | 1020.4 |
| 20260506124418 | 13 | 120 | 0.0 | 4.8 | 0.00 | 0.00 | 0.00 | 88 | 1020.3 |
| 20260506123414 | 13 | 188 | 0.0 | 3.2 | 0.00 | 0.00 | 0.00 | 88 | 1020.1 |
| 20260506122414 | 13 | 123 | 0.0 | 4.8 | 0.00 | 0.00 | 0.00 | 87 | 1020.2 |
| 20260506121409 | 13 | 119 | 0.0 | 3.2 | 0.00 | 0.00 | 0.00 | 87 | 1020.2 |
| 20260506120403 | 13 | 162 | 1.6 | 3.2 | 0.00 | 0.00 | 0.00 | 87 | 1020.1 |
| 20260506115358 | 13 | 133 | 1.6 | 4.8 | 0.00 | 0.00 | 0.00 | 86 | 1020.2 |
| 20260506114359 | 13 | 120 | 0.0 | 4.8 | 0.00 | 0.00 | 0.00 | 87 | 1020.0 |
| 20260506113354 | 13 | 230 | 0.0 | 3.2 | 0.00 | 0.00 | 0.00 | 87 | 1019.7 |
| 20260506112354 | 13 | 51 | 1.6 | 4.8 | 0.00 | 0.00 | 0.00 | 86 | 1019.9 |
| 20260506111350 | 13 | 172 | 1.6 | 6.4 | 0.00 | 0.00 | 0.00 | 86 | 1019.6 |
| 20260506110350 | 13 | 29 | 1.6 | 4.8 | 0.00 | 0.00 | 0.00 | 86 | 1019.5 |
| 20260506105349 | 13 | 173 | 1.6 | 4.8 | 0.00 | 0.00 | 0.00 | 86 | 1019.5 |
| 20260506104344 | 13 | 188 | 0.0 | 3.2 | 0.00 | 0.00 | 0.00 | 86 | 1019.5 |
| 20260506103339 | 13 | 161 | 0.0 | 4.8 | 0.00 | 0.00 | 0.00 | 85 | 1019.3 |
| 20260506102334 | 13 | 76 | 0.0 | 6.4 | 0.00 | 0.00 | 0.00 | 85 | 1019.2 |
| 20260506101333 | 13 | 159 | 3.2 | 6.4 | 0.00 | 0.00 | 0.00 | 85 | 1019.2 |
| 20260506100329 | 13 | 155 | 1.6 | 4.8 | 0.00 | 0.00 | 0.00 | 85 | 1019.3 |
| 20260506095329 | 13 | 188 | 3.2 | 6.4 | 0.00 | 0.00 | 0.00 | 85 | 1019.1 |
| 20260506094325 | 13 | 226 | 3.2 | 4.8 | 0.00 | 0.00 | 0.00 | 85 | 1019.3 |
| 20260506093325 | 14 | 106 | 0.0 | 3.2 | 0.00 | 0.00 | 0.00 | 84 | 1019.2 |
| 20260506092321 | 13 | 181 | 6.4 | 12.9 | 0.00 | 0.00 | 0.00 | 84 | 1019.3 |
| 20260506091321 | 14 | 151 | 6.4 | 8.0 | 0.00 | 0.00 | 0.00 | 84 | 1019.5 |
| 20260506090316 | 14 | 183 | 1.6 | 8.0 | 0.00 | 0.00 | 0.00 | 84 | 1019.3 |
| 20260506085314 | 14 | 157 | 3.2 | 4.8 | 0.00 | 0.00 | 0.00 | 84 | 1019.3 |
| 20260506084314 | 14 | 180 | 3.2 | 6.4 | 0.00 | 0.00 | 0.00 | 83 | 1019.3 |
| 20260506083308 | 14 | 139 | 3.2 | 4.8 | 0.00 | 0.00 | 0.00 | 84 | 1019.3 |
| 20260506082307 | 14 | 142 | 3.2 | 3.2 | 0.00 | 0.00 | 0.00 | 84 | 1019.2 |
| 20260506081302 | 14 | 124 | 1.6 | 4.8 | 0.00 | 0.00 | 0.00 | 84 | 1019.4 |
| 20260506080301 | 14 | 161 | 3.2 | 8.0 | 0.00 | 0.00 | 0.00 | 84 | 1019.3 |
| 20260506073251 | 14 | 127 | 1.6 | 8.0 | 0.00 | 0.00 | 0.00 | 84 | 1019.0 |
| 20260506072252 | 14 | 110 | 3.2 | 8.0 | 0.00 | 0.00 | 0.00 | 84 | 1018.9 |
| 20260506071247 | 14 | 178 | 0.0 | 6.4 | 0.00 | 0.00 | 0.00 | 84 | 1018.8 |
| 20260506070247 | 14 | 117 | 3.2 | 4.8 | 0.00 | 0.00 | 0.00 | 84 | 1018.9 |
| 20260506062230 | 14 | 186 | 4.8 | 8.0 | 0.00 | 0.05 | 0.05 | 84 | 1018.5 |
| 20260506061229 | 14 | 162 | 8.0 | 11.3 | 0.00 | 0.05 | 0.05 | 84 | 1018.3 |
| 20260506060224 | 15 | 355 | 0.0 | 4.8 | 0.00 | 0.05 | 0.05 | 84 | 1018.5 |
| 20260506051214 | 14 | 148 | 3.2 | 4.8 | 0.00 | 0.05 | 0.05 | 85 | 1018.0 |
| 20260506050209 | 15 | 173 | 0.0 | 4.8 | 0.00 | 0.05 | 0.05 | 84 | 1017.8 |
| 20260506044209 | 15 | 334 | 1.6 | 11.3 | 0.00 | 0.05 | 0.05 | 83 | 1017.6 |
| 20260506043204 | 15 | 148 | 1.6 | 12.9 | 0.00 | 0.05 | 0.05 | 82 | 1017.4 |
| 20260506042200 | 15 | 237 | 3.2 | 9.7 | 0.00 | 0.05 | 0.05 | 81 | 1017.2 |
| 20260506041155 | 15 | 191 | 9.7 | 11.3 | 0.00 | 0.05 | 0.05 | 81 | 1017.1 |
| 20260506040155 | 16 | 15 | 0.0 | 8.0 | 0.00 | 0.05 | 0.05 | 81 | 1017.3 |
| 20260506035155 | 16 | 86 | 1.6 | 9.7 | 0.00 | 0.05 | 0.05 | 80 | 1017.1 |
| 20260506034155 | 16 | 244 | 3.2 | 11.3 | 0.00 | 0.05 | 0.05 | 80 | 1016.9 |
| 20260506033154 | 16 | 241 | 1.6 | 9.7 | 0.00 | 0.05 | 0.05 | 81 | 1016.8 |
| 20260506032154 | 16 | 232 | 3.2 | 4.8 | 0.00 | 0.05 | 0.05 | 83 | 1016.7 |
| 20260506031154 | 16 | 165 | 1.6 | 4.8 | 0.00 | 0.05 | 0.05 | 82 | 1016.4 |
| 20260506030149 | 16 | 202 | 0.0 | 4.8 | 0.00 | 0.05 | 0.05 | 82 | 1016.5 |
| 20260506025148 | 16 | 142 | 0.0 | 3.2 | 0.00 | 0.05 | 0.05 | 81 | 1016.3 |
| 20260506024148 | 17 | 199 | 3.2 | 8.0 | 0.00 | 0.05 | 0.05 | 79 | 1015.9 |
| 20260506023147 | 17 | 207 | 4.8 | 9.7 | 0.00 | 0.05 | 0.05 | 78 | 1015.8 |
| 20260506022147 | 17 | 175 | 0.0 | 6.4 | 0.00 | 0.05 | 0.05 | 77 | 1015.8 |
| 20260506021142 | 17 | 153 | 0.0 | 4.8 | 0.00 | 0.05 | 0.05 | 76 | 1015.9 |
| 20260506020142 | 18 | 141 | 0.0 | 6.4 | 0.00 | 0.05 | 0.05 | 76 | 1015.8 |
| 20260506015137 | 18 | 91 | 0.0 | 6.4 | 0.00 | 0.05 | 0.05 | 76 | 1015.8 |
| 20260506014136 | 18 | 190 | 3.2 | 6.4 | 0.00 | 0.05 | 0.05 | 74 | 1015.7 |
| 20260506013131 | 18 | 188 | 3.2 | 8.0 | 0.00 | 0.05 | 0.05 | 72 | 1015.8 |
| 20260506012129 | 18 | 175 | 0.0 | 4.8 | 0.00 | 0.05 | 0.05 | 73 | 1015.7 |
| 20260506011129 | 18 | 177 | 3.2 | 8.0 | 0.00 | 0.05 | 0.05 | 74 | 1015.5 |
| 20260506010125 | 18 | 18 | 0.0 | 3.2 | 0.00 | 0.05 | 0.05 | 75 | 1015.5 |
| 20260506005124 | 18 | 140 | 0.0 | 6.4 | 0.00 | 0.05 | 0.05 | 75 | 1015.3 |
| 20260506004124 | 18 | 201 | 3.2 | 6.4 | 0.00 | 0.05 | 0.05 | 75 | 1015.3 |
| 20260506003122 | 18 | 194 | 3.2 | 6.4 | 0.00 | 0.05 | 0.05 | 75 | 1015.6 |
| 20260506002120 | 18 | 318 | 0.0 | 3.2 | 0.00 | 0.05 | 0.05 | 75 | 1015.5 |
| 20260506001119 | 18 | 231 | 1.6 | 4.8 | 0.00 | 0.05 | 0.05 | 73 | 1015.3 |
| 20260506000119 | 18 | 230 | 0.0 | 6.4 | 0.00 | 0.05 | 0.05 | 74 | 1015.4 |
| 20260505235114 | 18 | 203 | 0.0 | 6.4 | 0.00 | 0.05 | 0.05 | 74 | 1015.3 |
| 20260505234113 | 18 | 183 | 0.0 | 8.0 | 0.00 | 0.05 | 0.05 | 73 | 1015.2 |
| 20260505233108 | 18 | 189 | 4.8 | 9.7 | 0.00 | 0.05 | 0.05 | 74 | 1015.2 |
| 20260505232103 | 18 | 119 | 0.0 | 4.8 | 0.00 | 0.05 | 0.05 | 73 | 1015.4 |
| 20260505231059 | 18 | 193 | 0.0 | 9.7 | 0.00 | 0.05 | 0.05 | 74 | 1015.3 |
| 20260505230058 | 18 | 195 | 3.2 | 4.8 | 0.00 | 0.05 | 0.05 | 73 | 1015.2 |
| 20260505225056 | 18 | 177 | 0.0 | 8.0 | 0.00 | 0.05 | 0.05 | 73 | 1015.6 |
| 20260505224056 | 19 | 217 | 0.0 | 9.7 | 0.00 | 0.05 | 0.05 | 71 | 1015.6 |
| 20260505223055 | 20 | 209 | 0.0 | 4.8 | 0.00 | 0.05 | 0.05 | 68 | 1015.5 |
| 20260505222053 | 20 | 176 | 0.0 | 6.4 | 0.00 | 0.05 | 0.05 | 68 | 1015.7 |
| 20260505221053 | 20 | 235 | 0.0 | 4.8 | 0.00 | 0.05 | 0.05 | 65 | 1015.8 |
| 20260505220048 | 21 | 201 | 1.6 | 6.4 | 0.00 | 0.05 | 0.05 | 61 | 1015.9 |
| 20260505215043 | 20 | 62 | 1.6 | 4.8 | 0.00 | 0.05 | 0.05 | 68 | 1015.8 |
| 20260505214044 | 20 | 49 | 1.6 | 4.8 | 0.00 | 0.05 | 0.05 | 67 | 1015.9 |
| 20260505213043 | 20 | 41 | 0.0 | 3.2 | 0.00 | 0.05 | 0.05 | 69 | 1016.1 |
| 20260505212044 | 18 | 205 | 3.2 | 4.8 | 0.00 | 0.05 | 0.05 | 72 | 1016.1 |
| 20260505211043 | 18 | 49 | 1.6 | 3.2 | 0.00 | 0.05 | 0.05 | 75 | 1016.0 |
| 20260505210037 | 17 | 116 | 0.0 | 8.0 | 0.00 | 0.05 | 0.05 | 77 | 1016.0 |
| 20260505205038 | 17 | 176 | 4.8 | 11.3 | 0.00 | 0.05 | 0.05 | 77 | 1016.1 |
| 20260505204032 | 17 | 165 | 3.2 | 4.8 | 0.00 | 0.05 | 0.05 | 78 | 1016.1 |
| 20260505203032 | 17 | 339 | 3.2 | 8.0 | 0.00 | 0.05 | 0.05 | 79 | 1016.2 |
| 20260505202030 | 17 | 165 | 4.8 | 9.7 | 0.00 | 0.05 | 0.05 | 78 | 1016.2 |
| 20260505201025 | 18 | 176 | 4.8 | 8.0 | 0.00 | 0.05 | 0.05 | 77 | 1016.2 |
| 20260505200019 | 18 | 178 | 0.0 | 6.4 | 0.00 | 0.05 | 0.05 | 76 | 1016.3 |
| 20260505195018 | 18 | 173 | 1.6 | 6.4 | 0.00 | 0.05 | 0.05 | 76 | 1016.5 |
| 20260505194016 | 18 | 267 | 1.6 | 3.2 | 0.00 | 0.05 | 0.05 | 72 | 1016.3 |
| 20260505193010 | 18 | 40 | 3.2 | 6.4 | 0.00 | 0.05 | 0.05 | 71 | 1016.5 |
| 20260505192006 | 18 | 236 | 1.6 | 3.2 | 0.00 | 0.05 | 0.05 | 69 | 1016.2 |
| 20260505191001 | 18 | 259 | 0.0 | 4.8 | 0.00 | 0.05 | 0.05 | 69 | 1016.2 |
| 20260505185958 | 18 | 104 | 0.0 | 6.4 | 0.00 | 0.05 | 0.05 | 71 | 1016.5 |
| 20260505184957 | 20 | 195 | 1.6 | 6.4 | 0.00 | 0.05 | 0.05 | 68 | 1016.0 |
| 20260505183957 | 18 | 192 | 3.2 | 6.4 | 0.00 | 0.05 | 0.05 | 72 | 1016.2 |
| 20260505182956 | 18 | 197 | 3.2 | 6.4 | 0.00 | 0.05 | 0.05 | 71 | 1016.2 |